IBE09KW LEMD-LDZA

Flight info

Callsign IBE09KW
Flight time 2h 11m
Altitude 36000
Route PINAR DCT SEGRE DCT BRITO DCT PISUS DCT PONEN DCT SEROX DCT VILAR DCT KARES DCT BISES DCT BCN DCT SALON DCT AGENA DCT BODEQ DCT LUMAS DCT UNANA DCT STP DCT RAPED DCT PIGOS DCT EKSID DCT NOSTA DCT EGHIN DCT LABIN DCT RJK T742 KOTOR
Aircraft A20N/M-SDE2E3FGHIRWXY/LB1

Departure

Time 2026-05-03 22:25
Airport Adolfo Suárez Madrid–Barajas Airport (LEMD)

Arrival

Time 2026-05-04 00:36
Airport Zagreb Franjo Tuđman International Airport (LDZA)
Time Latitude Longitude Altitude Speed Heading
2026-05-03 22:02 40.48965 -3.58965 2022 ft 0 kts 269°
2026-05-03 22:07 40.48965 -3.58961 2022 ft 2 kts 269°
2026-05-03 22:07 40.48965 -3.58927 2026 ft 3 kts 269°
2026-05-03 22:07 40.48965 -3.58904 2027 ft 4 kts 288°
2026-05-03 22:08 40.48958 -3.58887 2028 ft 4 kts 327°
2026-05-03 22:08 40.48935 -3.58879 2022 ft 4 kts 359°
2026-05-03 22:08 40.48929 -3.58879 2022 ft 0 kts 359°
2026-05-03 22:11 40.48930 -3.58879 2022 ft 1 kts 359°
2026-05-03 22:11 40.48955 -3.58879 2022 ft 7 kts 359°
2026-05-03 22:11 40.49018 -3.58879 2029 ft 11 kts 360°
2026-05-03 22:12 40.49103 -3.58880 2022 ft 14 kts 359°
2026-05-03 22:12 40.49192 -3.58881 2022 ft 11 kts 359°
2026-05-03 22:12 40.49238 -3.58843 2029 ft 9 kts 71°
2026-05-03 22:12 40.49240 -3.58747 2030 ft 12 kts 90°
2026-05-03 22:13 40.49240 -3.58627 2027 ft 14 kts 90°
2026-05-03 22:13 40.49241 -3.58475 2014 ft 19 kts 90°
2026-05-03 22:13 40.49241 -3.58322 2009 ft 16 kts 89°
2026-05-03 22:13 40.49242 -3.58185 2004 ft 16 kts 89°
2026-05-03 22:14 40.49242 -3.58016 2001 ft 21 kts 90°
2026-05-03 22:14 40.49243 -3.57847 1995 ft 17 kts 89°
2026-05-03 22:14 40.49244 -3.57702 1989 ft 16 kts 89°
2026-05-03 22:14 40.49258 -3.57584 1987 ft 12 kts 66°
2026-05-03 22:15 40.49266 -3.57566 1987 ft 0 kts 60°
2026-05-03 22:20 40.49266 -3.57565 1986 ft 1 kts 60°
2026-05-03 22:21 40.49282 -3.57537 1987 ft 6 kts 51°
2026-05-03 22:21 40.49327 -3.57485 1983 ft 11 kts 31°
2026-05-03 22:21 40.49412 -3.57452 1983 ft 14 kts
2026-05-03 22:21 40.49445 -3.57452 1983 ft 0 kts 360°
2026-05-03 22:24 40.49565 -3.57453 1984 ft 52 kts 360°
2026-05-03 22:25 40.50190 -3.57465 1987 ft 123 kts 360°
2026-05-03 22:25 40.51234 -3.57467 2104 ft 166 kts
2026-05-03 22:25 40.52391 -3.57358 2785 ft 168 kts
2026-05-03 22:25 40.53547 -3.57157 3514 ft 169 kts
2026-05-03 22:26 40.54785 -3.57076 3992 ft 189 kts
2026-05-03 22:26 40.56165 -3.56956 4450 ft 207 kts
2026-05-03 22:26 40.57622 -3.56650 4895 ft 223 kts 10°
2026-05-03 22:26 40.59223 -3.56161 5259 ft 246 kts 13°
2026-05-03 22:27 40.60889 -3.55514 6132 ft 246 kts 17°
2026-05-03 22:27 40.62482 -3.54825 7263 ft 242 kts 17°
2026-05-03 22:27 40.64147 -3.54257 7994 ft 251 kts
2026-05-03 22:27 40.65891 -3.54069 8784 ft 257 kts
2026-05-03 22:28 40.67705 -3.53909 9592 ft 264 kts
2026-05-03 22:28 40.69553 -3.53601 10345 ft 272 kts 17°
2026-05-03 22:28 40.71198 -3.52339 11073 ft 279 kts 45°
2026-05-03 22:28 40.72446 -3.50314 11630 ft 293 kts 57°
2026-05-03 22:29 40.73589 -3.47955 11939 ft 318 kts 60°
2026-05-03 22:29 40.74796 -3.45376 12209 ft 342 kts 59°
2026-05-03 22:29 40.76122 -3.42641 12434 ft 366 kts 58°
2026-05-03 22:29 40.77541 -3.39822 13020 ft 376 kts 57°
2026-05-03 22:30 40.79024 -3.36937 13832 ft 381 kts 57°
2026-05-03 22:30 40.80529 -3.34033 14545 ft 385 kts 57°
2026-05-03 22:30 40.82055 -3.31090 15262 ft 389 kts 57°
2026-05-03 22:30 40.83571 -3.28164 15968 ft 392 kts 57°
2026-05-03 22:31 40.84952 -3.25037 16651 ft 395 kts 66°
2026-05-03 22:31 40.85974 -3.21638 17349 ft 398 kts 75°
2026-05-03 22:31 40.86685 -3.18088 18047 ft 401 kts 78°
2026-05-03 22:31 40.87377 -3.14538 18639 ft 406 kts 77°
2026-05-03 22:32 40.88095 -3.10906 19181 ft 411 kts 77°
2026-05-03 22:32 40.88824 -3.07218 19742 ft 416 kts 78°
2026-05-03 22:32 40.89559 -3.03503 20279 ft 420 kts 78°
2026-05-03 22:32 40.90303 -2.99735 20809 ft 425 kts 78°
2026-05-03 22:33 40.91043 -2.95966 21349 ft 430 kts 78°
2026-05-03 22:33 40.91798 -2.92101 21878 ft 435 kts 78°
2026-05-03 22:33 40.92560 -2.88198 22413 ft 440 kts 78°
2026-05-03 22:33 40.93329 -2.84246 22937 ft 444 kts 78°
2026-05-03 22:34 40.94094 -2.80308 23433 ft 449 kts 78°
2026-05-03 22:34 40.94874 -2.76281 23884 ft 453 kts 78°
2026-05-03 22:34 40.95659 -2.72219 24363 ft 456 kts 78°
2026-05-03 22:34 40.96448 -2.68138 24819 ft 459 kts 78°
2026-05-03 22:35 40.97231 -2.64080 25297 ft 460 kts 78°
2026-05-03 22:35 40.98028 -2.59945 25732 ft 464 kts 78°
2026-05-03 22:35 40.98826 -2.55781 26148 ft 467 kts 78°
2026-05-03 22:35 40.99628 -2.51586 26571 ft 470 kts 78°
2026-05-03 22:36 41.00433 -2.47361 26982 ft 474 kts 78°
2026-05-03 22:36 41.01230 -2.43173 27374 ft 477 kts 78°
2026-05-03 22:36 41.02044 -2.38887 27768 ft 480 kts 78°
2026-05-03 22:36 41.02860 -2.34579 28151 ft 483 kts 78°
2026-05-03 22:37 41.03681 -2.30250 28519 ft 485 kts 78°
2026-05-03 22:37 41.04505 -2.25900 28960 ft 485 kts 78°
2026-05-03 22:37 41.05327 -2.21556 29337 ft 488 kts 78°
2026-05-03 22:37 41.06145 -2.17211 29649 ft 491 kts 78°
2026-05-03 22:38 41.06974 -2.12805 29984 ft 494 kts 78°
2026-05-03 22:38 41.07807 -2.08359 30291 ft 496 kts 78°
2026-05-03 22:38 41.08641 -2.03900 30562 ft 499 kts 78°
2026-05-03 22:38 41.09467 -1.99461 30831 ft 502 kts 78°
2026-05-03 22:39 41.10309 -1.94931 31154 ft 503 kts 79°
2026-05-03 22:39 41.11134 -1.90481 31476 ft 504 kts 78°
2026-05-03 22:39 41.11971 -1.85958 31873 ft 503 kts 78°
2026-05-03 22:39 41.12805 -1.81436 32287 ft 502 kts 78°
2026-05-03 22:40 41.13635 -1.76929 32644 ft 503 kts 78°
2026-05-03 22:40 41.14465 -1.72410 32974 ft 503 kts 78°
2026-05-03 22:40 41.15283 -1.67946 33318 ft 503 kts 78°
2026-05-03 22:40 41.16112 -1.63413 33679 ft 503 kts 78°
2026-05-03 22:41 41.16936 -1.58896 33989 ft 503 kts 78°
2026-05-03 22:41 41.17749 -1.54422 34263 ft 503 kts 78°
2026-05-03 22:41 41.18567 -1.49914 34584 ft 501 kts 78°
2026-05-03 22:41 41.19383 -1.45404 34914 ft 500 kts 78°
2026-05-03 22:42 41.20194 -1.40915 35165 ft 500 kts 78°
2026-05-03 22:42 41.21004 -1.36423 35403 ft 500 kts 78°
2026-05-03 22:42 41.21813 -1.31929 35645 ft 500 kts 78°
2026-05-03 22:42 41.22610 -1.27489 35883 ft 500 kts 78°
2026-05-03 22:43 41.23415 -1.22994 36001 ft 500 kts 78°
2026-05-03 22:43 41.25023 -1.13986 35992 ft 498 kts 78°
2026-05-03 22:44 41.26603 -1.05082 35991 ft 498 kts 78°
2026-05-03 22:44 41.27924 -0.97610 35992 ft 498 kts 78°
2026-05-03 22:45 41.29759 -0.87179 35988 ft 498 kts 78°
2026-05-03 22:45 41.31327 -0.78218 35982 ft 497 kts 78°
2026-05-03 22:46 41.32634 -0.70710 35985 ft 496 kts 78°
2026-05-03 22:46 41.34179 -0.61796 35983 ft 496 kts 78°
2026-05-03 22:47 41.35292 -0.52766 35991 ft 492 kts 89°
2026-05-03 22:47 41.35306 -0.43734 35987 ft 490 kts 93°
2026-05-03 22:48 41.35244 -0.34656 35986 ft 490 kts 93°
2026-05-03 22:48 41.35175 -0.25569 35983 ft 490 kts 93°
2026-05-03 22:49 41.35095 -0.16496 35982 ft 490 kts 94°
2026-05-03 22:49 41.35006 -0.07458 35984 ft 490 kts 94°
2026-05-03 22:50 41.34909 0.01637 35970 ft 490 kts 93°
2026-05-03 22:50 41.34804 0.10699 35984 ft 494 kts 93°
2026-05-03 22:51 41.34693 0.19878 35984 ft 497 kts 93°
2026-05-03 22:51 41.34576 0.29030 35985 ft 496 kts 94°
2026-05-03 22:52 41.34450 0.38227 35968 ft 497 kts 94°
2026-05-03 22:52 41.34316 0.47386 35985 ft 492 kts 93°
2026-05-03 22:53 41.34178 0.56433 35994 ft 493 kts 93°
2026-05-03 22:53 41.34029 0.65590 36001 ft 494 kts 93°
2026-05-03 22:54 41.33876 0.74687 36001 ft 494 kts 93°
2026-05-03 22:54 41.33714 0.83818 36003 ft 490 kts 93°
2026-05-03 22:55 41.33546 0.92919 36008 ft 491 kts 94°
2026-05-03 22:55 41.33371 1.01963 36013 ft 491 kts 94°
2026-05-03 22:56 41.33189 1.10999 36020 ft 491 kts 94°
2026-05-03 22:56 41.32999 1.20083 36021 ft 489 kts 94°
2026-05-03 22:57 41.32805 1.29119 36009 ft 488 kts 94°
2026-05-03 22:57 41.32603 1.38148 36002 ft 487 kts 94°
2026-05-03 22:58 41.32395 1.47114 35997 ft 486 kts 94°
2026-05-03 22:58 41.32179 1.56117 36000 ft 485 kts 94°
2026-05-03 22:59 41.31957 1.65096 35995 ft 485 kts 94°
2026-05-03 22:59 41.31729 1.74025 35997 ft 485 kts 94°
2026-05-03 23:00 41.31491 1.83024 35996 ft 485 kts 94°
2026-05-03 23:00 41.31246 1.92010 36012 ft 489 kts 94°
2026-05-03 23:01 41.30996 2.00982 36025 ft 484 kts 94°
2026-05-03 23:01 41.30956 2.09972 36023 ft 487 kts 86°
2026-05-03 23:02 41.32149 2.18856 36024 ft 488 kts 77°
2026-05-03 23:02 41.33713 2.27577 36018 ft 483 kts 77°
2026-05-03 23:03 41.35254 2.36301 36019 ft 484 kts 78°
2026-05-03 23:03 41.36780 2.44983 36013 ft 484 kts 78°
2026-05-03 23:04 41.38312 2.53741 36016 ft 484 kts 78°
2026-05-03 23:04 41.39829 2.62443 36019 ft 484 kts 78°
2026-05-03 23:05 41.41344 2.71175 36010 ft 483 kts 78°
2026-05-03 23:05 41.42851 2.79909 36019 ft 483 kts 79°
2026-05-03 23:06 41.44342 2.88594 36011 ft 483 kts 79°
2026-05-03 23:06 41.45837 2.97344 36009 ft 483 kts 79°
2026-05-03 23:07 41.47324 3.06092 35992 ft 483 kts 79°
2026-05-03 23:07 41.48796 3.14787 36007 ft 482 kts 79°
2026-05-03 23:08 41.50272 3.23551 35999 ft 483 kts 79°
2026-05-03 23:08 41.51726 3.32238 36020 ft 483 kts 79°
2026-05-03 23:09 41.53183 3.40979 36007 ft 480 kts 79°
2026-05-03 23:09 41.54628 3.49699 36003 ft 480 kts 79°
2026-05-03 23:10 41.56054 3.58356 36006 ft 480 kts 79°
2026-05-03 23:10 41.57484 3.67083 36003 ft 480 kts 80°
2026-05-03 23:11 41.58911 3.75833 36003 ft 480 kts 80°
2026-05-03 23:11 41.60319 3.84508 35996 ft 480 kts 80°
2026-05-03 23:12 41.61729 3.93236 36003 ft 480 kts 80°
2026-05-03 23:12 41.63125 4.01904 35995 ft 480 kts 80°
2026-05-03 23:13 41.64526 4.10641 35999 ft 480 kts 80°
2026-05-03 23:13 41.65918 4.19373 36006 ft 480 kts 80°
2026-05-03 23:14 41.67295 4.28062 36004 ft 480 kts 80°
2026-05-03 23:14 41.68676 4.36820 36003 ft 480 kts 80°
2026-05-03 23:15 41.70042 4.45521 36020 ft 480 kts 81°
2026-05-03 23:15 41.71408 4.54276 36029 ft 480 kts 81°
2026-05-03 23:16 41.73009 4.62980 36011 ft 482 kts 69°
2026-05-03 23:16 41.76412 4.70615 36004 ft 482 kts 48°
2026-05-03 23:17 41.81154 4.76974 36018 ft 482 kts 44°
2026-05-03 23:17 41.85944 4.83301 36020 ft 483 kts 44°
2026-05-03 23:18 41.90726 4.89638 36036 ft 483 kts 44°
2026-05-03 23:18 41.95487 4.95961 36033 ft 484 kts 44°
2026-05-03 23:19 42.00247 5.02297 36037 ft 480 kts 44°
2026-05-03 23:19 42.05001 5.08636 36051 ft 481 kts 44°
2026-05-03 23:20 42.09756 5.14990 36056 ft 480 kts 44°
2026-05-03 23:20 42.14473 5.21310 36044 ft 480 kts 44°
2026-05-03 23:21 42.19212 5.27673 36066 ft 480 kts 44°
2026-05-03 23:21 42.23922 5.34012 36057 ft 480 kts 44°
2026-05-03 23:22 42.30987 5.43546 36065 ft 477 kts 44°
2026-05-03 23:22 42.35662 5.49870 36077 ft 477 kts 44°
2026-05-03 23:23 42.40356 5.56237 36083 ft 477 kts 44°
2026-05-03 23:23 42.45045 5.62610 36079 ft 478 kts 44°
2026-05-03 23:24 42.49716 5.68973 36085 ft 478 kts 45°
2026-05-03 23:24 42.54405 5.75377 36098 ft 477 kts 45°
2026-05-03 23:25 42.59087 5.81784 36096 ft 477 kts 45°
2026-05-03 23:25 42.63756 5.88188 36101 ft 477 kts 45°
2026-05-03 23:26 42.68404 5.94578 36097 ft 477 kts 45°
2026-05-03 23:26 42.73077 6.01015 36094 ft 477 kts 45°
2026-05-03 23:27 42.77736 6.07450 36097 ft 477 kts 45°
2026-05-03 23:27 42.82360 6.13848 36089 ft 477 kts 45°
2026-05-03 23:28 42.87157 6.20097 36082 ft 476 kts 39°
2026-05-03 23:28 42.92244 6.25898 36088 ft 476 kts 39°
2026-05-03 23:29 42.97324 6.31721 36093 ft 476 kts 39°
2026-05-03 23:29 43.02374 6.37530 36103 ft 477 kts 39°
2026-05-03 23:30 43.07452 6.43383 36106 ft 477 kts 39°
2026-05-03 23:30 43.12533 6.49253 36099 ft 477 kts 39°
2026-05-03 23:31 43.17575 6.55092 36113 ft 477 kts 40°
2026-05-03 23:31 43.22407 6.61356 36095 ft 478 kts 49°
2026-05-03 23:32 43.26405 6.68635 36114 ft 478 kts 54°
2026-05-03 23:32 43.30321 6.76017 36117 ft 478 kts 54°
2026-05-03 23:33 43.33571 6.82166 36134 ft 478 kts 54°
2026-05-03 23:33 43.38109 6.90791 36124 ft 478 kts 54°
2026-05-03 23:34 43.41354 6.96979 36127 ft 479 kts 54°
2026-05-03 23:34 43.45251 7.04427 36131 ft 479 kts 54°
2026-05-03 23:35 43.49139 7.11877 36136 ft 479 kts 54°
2026-05-03 23:35 43.53011 7.19316 36142 ft 479 kts 55°
2026-05-03 23:36 43.56889 7.26783 36137 ft 479 kts 55°
2026-05-03 23:36 43.60763 7.34264 36144 ft 479 kts 55°
2026-05-03 23:37 43.64631 7.41752 36131 ft 478 kts 55°
2026-05-03 23:37 43.68472 7.49205 36127 ft 478 kts 55°
2026-05-03 23:38 43.72320 7.56693 36114 ft 478 kts 55°
2026-05-03 23:38 43.76164 7.64192 36103 ft 478 kts 55°
2026-05-03 23:39 43.80009 7.71715 36105 ft 478 kts 54°
2026-05-03 23:39 43.83852 7.79248 36106 ft 478 kts 54°
2026-05-03 23:40 43.87681 7.86739 36116 ft 479 kts 54°
2026-05-03 23:40 43.91541 7.94311 36123 ft 479 kts 54°
2026-05-03 23:41 43.95384 8.01875 36125 ft 479 kts 54°
2026-05-03 23:41 43.99203 8.09410 36129 ft 479 kts 54°
2026-05-03 23:42 44.03031 8.17010 36145 ft 480 kts 57°
2026-05-03 23:42 44.06107 8.25157 36132 ft 478 kts 69°
2026-05-03 23:43 44.08133 8.33962 36129 ft 477 kts 75°
2026-05-03 23:43 44.10032 8.42804 36127 ft 476 kts 74°
2026-05-03 23:44 44.11916 8.51594 36129 ft 476 kts 74°
2026-05-03 23:44 44.13799 8.60457 36129 ft 476 kts 74°
2026-05-03 23:45 44.15658 8.69262 36128 ft 476 kts 75°
2026-05-03 23:45 44.17519 8.78119 36126 ft 475 kts 74°
2026-05-03 23:46 44.19364 8.86936 36134 ft 475 kts 74°
2026-05-03 23:46 44.21210 8.95798 36141 ft 475 kts 74°
2026-05-03 23:47 44.23039 9.04612 36140 ft 475 kts 75°
2026-05-03 23:47 44.24869 9.13475 36145 ft 475 kts 75°
2026-05-03 23:48 44.26694 9.22346 36142 ft 475 kts 75°
2026-05-03 23:48 44.28515 9.31238 36148 ft 475 kts 75°
2026-05-03 23:49 44.30313 9.40060 36157 ft 475 kts 75°
2026-05-03 23:49 44.32115 9.48945 36153 ft 475 kts 75°
2026-05-03 23:50 44.33912 9.57837 36157 ft 474 kts 75°
2026-05-03 23:50 44.35692 9.66683 36157 ft 475 kts 75°
2026-05-03 23:51 44.37473 9.75571 36153 ft 474 kts 75°
2026-05-03 23:51 44.39247 9.84473 36137 ft 474 kts 75°
2026-05-03 23:52 44.40998 9.93301 36143 ft 473 kts 75°
2026-05-03 23:52 44.42755 10.02193 36142 ft 473 kts 75°
2026-05-03 23:53 44.44495 10.11035 36148 ft 473 kts 75°
2026-05-03 23:53 44.46235 10.19927 36165 ft 473 kts 75°
2026-05-03 23:54 44.47965 10.28805 36181 ft 472 kts 75°
2026-05-03 23:54 44.49689 10.37686 36181 ft 472 kts 75°
2026-05-03 23:55 44.51392 10.46507 36192 ft 471 kts 75°
2026-05-03 23:55 44.53102 10.55395 36179 ft 471 kts 75°
2026-05-03 23:56 44.54790 10.64223 36188 ft 470 kts 75°
2026-05-03 23:56 44.56483 10.73106 36189 ft 470 kts 75°
2026-05-03 23:57 44.58165 10.81979 36172 ft 469 kts 75°
2026-05-03 23:57 44.59828 10.90792 36169 ft 469 kts 75°
2026-05-03 23:58 44.61493 10.99657 36179 ft 469 kts 75°
2026-05-03 23:58 44.63143 11.08482 36156 ft 469 kts 75°
2026-05-03 23:59 44.64797 11.17366 36155 ft 469 kts 75°
2026-05-03 23:59 44.66445 11.26265 36106 ft 470 kts 75°
2026-05-04 00:00 44.68077 11.35120 36110 ft 470 kts 75°
2026-05-04 00:00 44.69710 11.44023 36112 ft 470 kts 75°
2026-05-04 00:01 44.71328 11.52882 36133 ft 471 kts 75°
2026-05-04 00:01 44.72951 11.61814 36132 ft 471 kts 75°
2026-05-04 00:02 44.74565 11.70745 36140 ft 471 kts 75°
2026-05-04 00:02 44.76178 11.79710 36133 ft 471 kts 75°
2026-05-04 00:03 44.77769 11.88602 36123 ft 471 kts 75°
2026-05-04 00:03 44.79364 11.97551 36123 ft 471 kts 75°
2026-05-04 00:04 44.80952 12.06505 36110 ft 471 kts 75°
2026-05-04 00:04 44.82536 12.15488 36101 ft 471 kts 75°
2026-05-04 00:05 44.84100 12.24396 36104 ft 471 kts 75°
2026-05-04 00:05 44.85661 12.33343 36084 ft 467 kts 75°
2026-05-04 00:06 44.87202 12.42204 36090 ft 468 kts 75°
2026-05-04 00:06 44.88747 12.51136 36097 ft 468 kts 75°
2026-05-04 00:07 44.90271 12.59997 36092 ft 465 kts 75°
2026-05-04 00:07 44.91793 12.68886 36093 ft 465 kts 75°
2026-05-04 00:08 44.93297 12.77723 36097 ft 462 kts 75°
2026-05-04 00:08 44.94784 12.86495 36099 ft 462 kts 75°
2026-05-04 00:09 44.96277 12.95334 36096 ft 462 kts 75°
2026-05-04 00:09 44.97766 13.04173 36089 ft 462 kts 75°
2026-05-04 00:10 44.99184 13.13038 36103 ft 462 kts 76°
2026-05-04 00:10 45.00672 13.21815 36116 ft 462 kts 75°
2026-05-04 00:11 45.02176 13.30603 36095 ft 459 kts 75°
2026-05-04 00:11 45.02914 13.35000 35968 ft 460 kts 75°
2026-05-04 00:11 45.03648 13.39412 35712 ft 460 kts 75°
2026-05-04 00:12 45.04379 13.43830 35467 ft 460 kts 75°
2026-05-04 00:12 45.05100 13.48197 35220 ft 461 kts 75°
2026-05-04 00:12 45.05832 13.52644 34973 ft 462 kts 75°
2026-05-04 00:12 45.06555 13.57056 34684 ft 461 kts 75°
2026-05-04 00:13 45.07287 13.61528 34008 ft 465 kts 75°
2026-05-04 00:13 45.08015 13.65977 33051 ft 470 kts 75°
2026-05-04 00:13 45.08745 13.70462 32301 ft 469 kts 75°
2026-05-04 00:13 45.09476 13.74962 31501 ft 470 kts 75°
2026-05-04 00:14 45.10206 13.79472 30917 ft 466 kts 75°
2026-05-04 00:14 45.10926 13.83936 30328 ft 462 kts 75°
2026-05-04 00:14 45.11641 13.88369 29526 ft 462 kts 75°
2026-05-04 00:14 45.12347 13.92759 28855 ft 459 kts 75°
2026-05-04 00:15 45.13053 13.97162 28371 ft 453 kts 75°
2026-05-04 00:15 45.13736 14.01434 27806 ft 448 kts 76°
2026-05-04 00:15 45.14420 14.05723 27241 ft 443 kts 76°
2026-05-04 00:15 45.15097 14.09971 26672 ft 438 kts 76°
2026-05-04 00:16 45.15765 14.14176 26105 ft 434 kts 76°
2026-05-04 00:16 45.16417 14.18292 25553 ft 430 kts 76°
2026-05-04 00:16 45.17068 14.22413 24990 ft 426 kts 76°
2026-05-04 00:16 45.17708 14.26473 24407 ft 424 kts 76°
2026-05-04 00:17 45.18348 14.30538 23844 ft 420 kts 76°
2026-05-04 00:17 45.18981 14.34573 23260 ft 416 kts 77°
2026-05-04 00:17 45.19605 14.38564 22713 ft 411 kts 77°
2026-05-04 00:17 45.20217 14.42493 22146 ft 406 kts 77°
2026-05-04 00:18 45.20821 14.46375 21599 ft 401 kts 77°
2026-05-04 00:18 45.21420 14.50232 21047 ft 397 kts 77°
2026-05-04 00:18 45.22005 14.54006 20500 ft 393 kts 77°
2026-05-04 00:18 45.22642 14.57775 19949 ft 389 kts 72°
2026-05-04 00:19 45.23439 14.61400 19410 ft 386 kts 72°
2026-05-04 00:19 45.24246 14.65022 18859 ft 383 kts 72°
2026-05-04 00:19 45.25043 14.68614 18298 ft 380 kts 72°
2026-05-04 00:19 45.25819 14.72127 17744 ft 376 kts 72°
2026-05-04 00:20 45.26598 14.75674 17203 ft 372 kts 72°
2026-05-04 00:20 45.27364 14.79167 16674 ft 368 kts 72°
2026-05-04 00:20 45.28119 14.82620 16146 ft 364 kts 72°
2026-05-04 00:20 45.28615 14.84894 15801 ft 362 kts 72°
2026-05-04 00:21 45.29358 14.88302 15283 ft 359 kts 72°
2026-05-04 00:21 45.30093 14.91677 14765 ft 356 kts 72°
2026-05-04 00:21 45.31056 14.96111 14078 ft 352 kts 73°
2026-05-04 00:21 45.31545 14.98364 13718 ft 351 kts 73°
2026-05-04 00:22 45.32487 15.02717 13048 ft 346 kts 73°
2026-05-04 00:22 45.32954 15.04878 12707 ft 343 kts 73°
2026-05-04 00:22 45.33650 15.08103 12226 ft 340 kts 73°
2026-05-04 00:22 45.34347 15.11336 11730 ft 337 kts 73°
2026-05-04 00:23 45.35033 15.14524 11241 ft 334 kts 73°
2026-05-04 00:23 45.35702 15.17636 10767 ft 332 kts 73°
2026-05-04 00:23 45.36374 15.20767 10424 ft 325 kts 73°
2026-05-04 00:23 45.37016 15.23767 10245 ft 307 kts 73°
2026-05-04 00:24 45.37626 15.26619 9843 ft 296 kts 73°
2026-05-04 00:24 45.38211 15.29357 9434 ft 287 kts 73°
2026-05-04 00:24 45.38795 15.32093 9290 ft 292 kts 73°
2026-05-04 00:24 45.39383 15.34855 9142 ft 291 kts 73°
2026-05-04 00:25 45.39972 15.37621 8695 ft 292 kts 73°
2026-05-04 00:25 45.40562 15.40400 8306 ft 293 kts 73°
2026-05-04 00:25 45.41137 15.43109 7936 ft 285 kts 73°
2026-05-04 00:25 45.41699 15.45761 7565 ft 275 kts 73°
2026-05-04 00:26 45.42243 15.48331 7216 ft 268 kts 73°
2026-05-04 00:26 45.42778 15.50864 6905 ft 265 kts 73°
2026-05-04 00:26 45.43298 15.53331 6801 ft 252 kts 73°
2026-05-04 00:26 45.43784 15.55632 6720 ft 238 kts 72°
2026-05-04 00:27 45.44427 15.57735 6611 ft 226 kts 59°
2026-05-04 00:27 45.45326 15.59575 6285 ft 226 kts 51°
2026-05-04 00:27 45.46338 15.61458 6005 ft 257 kts 52°
2026-05-04 00:27 45.47439 15.63544 5846 ft 263 kts 53°
2026-05-04 00:28 45.48514 15.65600 5730 ft 250 kts 53°
2026-05-04 00:28 45.49539 15.67566 5332 ft 246 kts 53°
2026-05-04 00:28 45.50545 15.69500 4828 ft 245 kts 55°
2026-05-04 00:28 45.51418 15.71559 4493 ft 236 kts 59°
2026-05-04 00:29 45.52340 15.73451 4214 ft 227 kts 51°
2026-05-04 00:29 45.53337 15.75105 4028 ft 222 kts 47°
2026-05-04 00:29 45.54389 15.76699 3972 ft 213 kts 47°
2026-05-04 00:29 45.55364 15.78170 3934 ft 194 kts 47°
2026-05-04 00:30 45.56261 15.79528 3830 ft 181 kts 47°
2026-05-04 00:30 45.57097 15.80792 3733 ft 169 kts 48°
2026-05-04 00:30 45.57877 15.81971 3611 ft 160 kts 48°
2026-05-04 00:30 45.58613 15.83086 3544 ft 159 kts 48°
2026-05-04 00:31 45.59378 15.84245 3479 ft 159 kts 48°
2026-05-04 00:31 45.60134 15.85390 3410 ft 158 kts 48°
2026-05-04 00:31 45.60882 15.86522 3339 ft 157 kts 48°
2026-05-04 00:31 45.61632 15.87659 3268 ft 158 kts 48°
2026-05-04 00:32 45.62387 15.88804 3202 ft 158 kts 49°
2026-05-04 00:32 45.63140 15.89945 3121 ft 158 kts 49°
2026-05-04 00:32 45.63890 15.91081 2959 ft 154 kts 49°
2026-05-04 00:32 45.64626 15.92199 2780 ft 155 kts 49°
2026-05-04 00:33 45.65365 15.93320 2585 ft 155 kts 49°
2026-05-04 00:33 45.66826 15.95538 2185 ft 153 kts 49°
2026-05-04 00:33 45.67558 15.96649 1989 ft 153 kts 49°
2026-05-04 00:34 45.68287 15.97756 1781 ft 152 kts 49°
2026-05-04 00:34 45.69006 15.98848 1576 ft 150 kts 49°
2026-05-04 00:34 45.69707 15.99914 1377 ft 147 kts 48°
2026-05-04 00:34 45.70401 16.00969 1183 ft 143 kts 48°
2026-05-04 00:35 45.71075 16.01993 992 ft 140 kts 47°
2026-05-04 00:35 45.71734 16.02995 809 ft 138 kts 46°
2026-05-04 00:35 45.72394 16.03998 632 ft 138 kts 46°
2026-05-04 00:35 45.73055 16.04999 464 ft 138 kts 46°
2026-05-04 00:36 45.73709 16.05990 363 ft 129 kts 46°
2026-05-04 00:36 45.74189 16.06718 362 ft 73 kts 47°
2026-05-04 00:36 45.74401 16.07042 358 ft 16 kts 46°
2026-05-04 00:36 45.74528 16.07235 361 ft 35 kts 47°
2026-05-04 00:37 45.74658 16.07433 361 ft 14 kts 46°
2026-05-04 00:37 45.74646 16.07558 362 ft 16 kts 138°
2026-05-04 00:37 45.74602 16.07614 361 ft 7 kts 138°
2026-05-04 00:37 45.74558 16.07672 362 ft 10 kts 137°
2026-05-04 00:38 45.74498 16.07754 359 ft 14 kts 136°
2026-05-04 00:38 45.74421 16.07857 359 ft 11 kts 136°
2026-05-04 00:38 45.74401 16.07884 360 ft 3 kts 137°
2026-05-04 00:38 45.74375 16.07910 359 ft 6 kts 158°
2026-05-04 00:39 45.74331 16.07879 364 ft 9 kts 227°
2026-05-04 00:39 45.74279 16.07798 362 ft 13 kts 227°
2026-05-04 00:39 45.74242 16.07764 361 ft 5 kts 174°
2026-05-04 00:39 45.74207 16.07797 360 ft 5 kts 135°
2026-05-04 00:40 45.74190 16.07821 362 ft 1 kts 136°
2026-05-04 00:40 45.74182 16.07832 362 ft 0 kts 136°
2026-05-04 00:40 45.74179 16.07836 362 ft 1 kts 136°
2026-05-04 00:40 45.74178 16.07838 361 ft 0 kts 136°